Location: Poughquag
(41.6090°N, 73.6820°W)
Time: 03:33:52
(UTC-04:00)

Transit 2A Rocket - Pass Details

Date: 30 May 2020
Orbit: 584 x 919 km, 66.7° (Epoch: 06 July)

Event Time Altitude Azimuth Distance (km) Brightness Sun altitude
Rises 07:31:01 0° 334° (NNW) 3,499 8.3 21.3°
Reaches altitude 10° 07:33:36 10° 340° (NNW) 2,584 7.7 21.8°
Maximum altitude 07:39:26 46° 53° (NE) 1,220 7.3 22.9°
Drops below altitude 10° 07:45:16 10° 126° (SE) 2,598 8.5 24.0°
Sets 07:47:53 0° 132° (SE) 3,519 9.0 24.4°
